Regional Weather Roundup
Issued by NWS New Orleans/Baton Rouge, LA

Home | Current Version | Previous Version | Graphics & Text | Print | Product List | Glossary On
Versions: 1 2 3 4 5 6 7 8 9 10 11 12 13 14 15 16 17 18 19 20 21 22 23 24 25 26 27 28 29 30 31 32 33 34 35 36 37 38 39 40 41 42 43 44 45 46 47 48 49 50
815
ASUS44 KLIX 161801
RWRLIX
NEW ORLEANS REGIONAL WEATHER ROUNDUP
NATIONAL WEATHER SERVICE NEW ORLEANS LA
100 PM CDT WED APR 16 2014

NOTE: "FAIR" INDICATES FEW OR NO CLOUDS BELOW 12,000 FEET WITH NO
      SIGNIFICANT WEATHER AND/OR OBSTRUCTIONS TO VISIBILITY.
      SKY/WX - SKY CONDITION AND SIGNIFICANT WEATHER.
      TMP - AIR TEMPERATURE.     DP    - DEWPOINT TEMPERATURE.
      RH  - RELATIVE HUMIDITY.   PRES  - PRESSURE.
      HI  - HEAT INDEX.          WCI   - WIND CHILL INDEX.

*  THESE STATIONS ARE NOT NWS OR FAA STATIONS AND ARE NOT UNDER
   NWS QUALITY CONTROL.

LAZ038-040-048-061>063-065>067-069-161900-
SOUTHEAST LOUISIANA

CITY           SKY/WX    TMP DP  RH WIND       PRES   REMARKS
N.O. AUDUBON     N/A     62  42  48 MISG        N/A
6HR MIN TEMP:  47; 6HR MAX TEMP:  62;

N.O. INTL ARPT   N/A     61  42  49 VRB7      30.21F
6HR MIN TEMP:  47; 6HR MAX TEMP:  61;

N.O. LAKEFRONT   N/A     58  41  53 NE8       30.22F
6HR MIN TEMP:  48; 6HR MAX TEMP:  58;

N.O. DOWNTOWN*   N/A     59  37  44 NE7       30.22F
6HR MIN TEMP:  46; 6HR MAX TEMP:  61;

SLIDELL          N/A     60  33  36 W5        30.20F
6HR MIN TEMP:  41; 6HR MAX TEMP:  60;

BATON ROUGE      N/A     62  37  39 SE6       30.22F
6HR MIN TEMP:  37; 6HR MAX TEMP:  62;

BOOTHVILLE       N/A     59  46  62 NE10      30.20F
6HR MIN TEMP:  54; 6HR MAX TEMP:  60;

BELLE CHASSE     N/A     60  41  49 VRB6      30.20F
6HR MIN TEMP:  45; 6HR MAX TEMP:  61;

BOGALUSA*        N/A     60  31  33 SW6       30.23F
6HR MIN TEMP:  37; 6HR MAX TEMP:  60;

GALLIANO*      NOT AVBL
NEW ROADS*     NOT AVBL
GONZALES*        N/A     60  37  42 CALM      30.21F
6HR MIN TEMP:  38; 6HR MAX TEMP:  60;

HAMMOND*       NOT AVBL
HOUMA*         MOSUNNY   63  41  45 SE5       30.21F
PORT FOURCHON* CLOUDY    61  45  55 E7G13     30.21F

$$

MSZ070-080>082-161900-
SOUTHERN MISSISSIPPI

CITY           SKY/WX    TMP DP  RH WIND       PRES   REMARKS
MCCOMB           N/A     58  30  34 MISG      30.22F
6HR MIN TEMP:  35; 6HR MAX TEMP:  58;

GULFPORT         N/A     62  34  35 CALM      30.20F
6HR MIN TEMP:  41; 6HR MAX TEMP:  62;

BILOXI           N/A     57  35  44 S7        30.20F
6HR MIN TEMP:  40; 6HR MAX TEMP:  57;

PASCAGOULA       N/A     59  33  37 S7        30.20F
6HR MIN TEMP:  38; 6HR MAX TEMP:  60;

STENNIS ARPT*  SUNNY     59  25  27 VRB3      30.21F

$$

COASTAL OBSERVATIONS
LAKE AND NEARSHORE STATIONS

STATION/POSITION TIME  TEMP    WIND        PRES    WAVE
                       AIR SEA DIR/SP/G            HT/PER
                 (UTC) (F)     (DEG/KT/KT) (MB)    (FT/S)
PASCAGOULA       1700   54     140/  7/ 11 1022.4
WAVELAND YACHT   1700   51 61  160/  7/ 10 1022.7
GRAND ISLE       1700   60 66   80/  6/  9 1023.1
SOUTHWEST PASS   1700   66 58   60/ 12/ 15 1022.5
NEW CANAL        1700   55 62   60/  8/  9 1023.7
SHELL BEACH      1700   55 60   50/ 10/ 12 1023.0

OFFSHORE STATIONS

STATION/POSITION TIME  TEMP    WIND        PRES    WAVE
                       AIR SEA DIR/SP/G            HT/PER
                 (UTC) (F)     (DEG/KT/KT) (MB)    (FT/S)
64 S DAUPHIN ISL 1800   56      60/ 12     1022.1

$$




USA.gov is the U.S. government's official web portal to all federal, state and local government web resources and services.